[[{"header":{"parameterUnit":"m.s-1","parameterCategory":1,"la1":30.2991,"la2":30.254,"lo1":-89.0895,"lo2":-89.0444,"dy":0.0017,"dx":0.0017,"nx":28,"ny":28,"refTime":"2024-08-16T09:00:00:Z","depth":0,"parameterNumber":2,"parameterNumberName":"U-component_of_WINDS"},"data":[0,0,0,0,0,0,0,0,0,0,0,0,0,0,0,0,0,0,0,0,0,0,0,0,0,0,0,0,0,0,0,0,0,0,0,0,0,0,0,0,0,0,0,0,0,0,0,0,0,0,0,0,0,0,0,0,0,0,3.5115,3.5116,0,3.5158,3.5158,3.5159,3.5051,3.5047,3.5044,3.5041,3.5086,3.509,3.5095,0,0,0,0,0,0,0,0,0,0,0,0,0,3.4939,3.4943,3.5115,3.5116,3.5116,3.5158,3.5158,3.5159,3.5051,3.5047,3.5043,3.5039,3.5085,3.509,3.5095,0,0,0,0,0,0,0,0,0,0,0,0,0,3.5002,3.4944,3.5115,3.5067,3.5064,3.5158,3.5159,3.5159,3.5052,3.5047,3.5042,3.5037,3.5083,3.5089,3.5096,3.5239,0,0,3.5116,3.5119,0,0,0,0,0,0,0,0,3.4999,3.5009,3.5074,3.5071,3.5067,3.5094,3.5113,3.5186,3.5054,3.5057,3.5041,3.5035,3.5093,3.5098,3.5118,3.5241,3.5243,3.5116,3.512,3.5123,3.5125,0,0,0,0,0,0,0,3.4995,3.5006,3.5132,3.5075,3.5071,3.5044,3.5047,3.5126,3.5103,3.5056,3.5048,3.5055,3.509,3.5112,3.5118,3.5243,3.5116,3.5122,3.5126,3.5129,3.548,3.5485,0,0,0,0,0,0,3.4996,3.5003,3.5131,3.5133,3.5019,3.5051,3.5055,3.509,3.5102,3.5099,3.5059,3.505,3.5103,3.511,3.5119,3.5282,3.5123,3.5129,3.5133,3.5475,3.5481,3.5487,0,0,0,0,0,0,3.4993,3.5009,3.5129,3.5066,3.5079,3.5059,3.51,3.5094,3.5115,3.5104,3.5099,3.5085,3.5099,3.511,3.5208,3.5282,3.5132,3.5138,3.5468,3.5477,3.5484,3.5613,0,0,0,0,0,0,3.4988,3.5008,3.5062,3.5068,3.5083,3.5218,3.5105,3.5098,3.5127,3.5115,3.5127,3.5125,3.5096,3.5199,3.5215,3.5289,3.5143,3.5461,3.5472,3.5482,3.5602,3.5624,3.5643,0,0,0,0,0,3.4982,3.5099,3.5066,3.5082,3.5151,3.5223,3.5231,3.5195,3.5133,3.5187,3.5179,3.5124,3.5273,3.521,3.5227,3.5304,3.5457,3.5469,3.5481,3.5592,3.562,3.5643,0,0,0,0,0,0,3.5103,3.5098,3.5062,3.5184,3.5204,3.5204,3.5271,3.5226,3.5265,3.5253,3.5207,3.5211,3.5317,3.5321,3.5251,3.544,3.5354,3.537,3.5433,3.5459,3.5479,3.5474,3.5149,0,0,0,0,0,3.5144,3.5203,3.5196,3.5303,3.5315,3.5292,3.5322,3.5292,3.5312,3.532,3.532,3.5341,3.5391,3.5426,3.5473,3.5603,3.5602,3.5664,3.5685,3.5702,3.5715,3.5779,3.5806,3.5527,3.5527,3.5526,0,0,3.5229,3.5233,3.5274,3.5328,3.534,3.54,3.53,3.537,3.5413,3.5331,3.5422,3.5423,3.5443,3.5557,3.5607,3.5563,3.5792,3.5718,3.5731,3.5735,3.5795,3.5821,3.5844,3.5535,3.5534,3.5532,0,0,3.5413,3.5424,3.5512,3.5526,3.5546,3.5529,3.555,3.5557,3.5553,3.5644,3.5582,3.5634,3.5724,3.574,3.576,3.5947,3.5896,3.5964,3.6072,3.6135,3.6157,3.6176,3.6238,3.6261,3.5978,3.5979,3.5979,0,3.5515,3.5604,3.5564,3.5636,3.566,3.5588,3.5675,3.5691,3.5726,3.5743,3.5695,3.5802,3.5812,3.5925,3.5971,3.5991,3.6011,3.596,3.6157,3.6176,3.6193,3.6251,3.6275,3.5986,3.5985,3.5984,3.5984,0,3.5727,3.5789,3.5858,3.589,3.5923,3.6003,3.5974,3.6012,3.5979,3.5967,3.6059,3.6067,3.6112,3.6138,3.6108,3.6246,3.6218,3.6165,3.6076,3.6228,3.6281,3.6304,3.5997,3.5994,3.5992,3.599,0,0,3.5987,3.5994,3.602,3.6031,3.6047,3.6094,3.617,3.6212,3.6243,3.627,3.633,3.6406,3.6355,3.6378,3.6349,3.6405,3.6547,3.6343,3.6343,3.6377,3.6694,3.6731,3.6758,3.6515,3.6519,3.6523,3.6691,0,3.6164,3.6293,3.6258,3.6385,3.644,3.6371,3.6437,3.6453,3.6444,3.6488,3.6479,3.6531,3.6463,3.6475,3.6528,3.6519,3.6609,3.6507,3.6568,3.657,3.656,3.6787,3.6827,3.6985,3.6712,3.6716,3.6719,0,3.6388,3.642,3.6553,3.6554,3.6576,3.6636,3.6669,3.6714,3.673,3.6719,3.6743,3.6702,3.6775,3.669,3.6787,3.6718,3.6742,3.6741,3.6746,3.6747,3.665,3.6789,3.7036,3.7057,3.6753,3.675,3.6747,0,3.6558,3.6635,3.6722,3.6735,3.6742,3.6784,3.6789,3.6799,3.6826,3.6856,3.6872,3.6912,3.6933,3.6964,3.6934,3.6875,3.7035,3.6948,3.7025,3.7026,3.7059,3.7056,3.7307,3.7082,3.7082,3.7082,3.7081,0,3.6757,3.684,3.6798,3.6852,3.6941,3.69,3.699,3.6987,3.6997,3.7047,3.6993,3.7042,3.7002,3.7047,3.7025,3.7106,3.7118,3.7109,3.7101,3.7111,3.7111,3.7122,3.7109,3.7088,3.7086,3.7085,3.7084,0,3.696,3.6937,3.7026,3.7024,3.7025,3.7091,3.7088,3.7137,3.7124,3.7188,3.7201,3.718,3.723,3.7204,3.7257,3.7242,3.7346,3.7326,3.734,3.7332,3.7409,3.74,3.7672,3.7704,3.7464,3.7466,3.7468,0,3.7087,3.7148,3.7151,3.718,3.7187,3.7237,3.7262,3.7225,3.7254,3.7274,3.732,3.7365,3.7398,3.7481,3.747,3.7509,3.7486,3.7579,3.7492,3.7498,3.7481,3.7476,3.748,3.7595,3.7598,3.76,3.7602,0,3.7311,3.7295,3.7334,3.7368,3.74,3.7426,3.7447,3.7474,3.7436,3.7472,3.7521,3.7547,3.7599,3.7642,3.7676,3.768,3.7634,3.763,3.7649,3.7657,3.7661,3.7655,3.7382,3.7623,3.7621,3.7619,3.7618,3.7618,3.7476,3.7525,3.7534,3.7578,3.7589,3.7609,3.7653,3.7644,3.7684,3.7722,3.7698,3.7755,3.7767,3.7806,3.7816,3.7859,3.7822,3.7851,3.7857,3.7864,3.7871,3.7658,3.7866,3.7865,3.7865,3.7864,3.7864,0,3.7693,3.7695,3.7736,3.7765,3.7799,3.7753,3.7773,3.7804,3.7855,3.7869,3.7902,3.7957,3.7999,3.7991,3.8028,3.8064,3.8044,3.8075,3.8069,3.807,3.7905,3.7882,3.809,3.809,3.809,3.809,3.809,3.809,3.781,3.7889,3.7874,3.7957,3.7958,3.8012,3.8027,3.8044,3.8054,3.8117,3.8151,3.8146,3.815,3.8187,3.8222,3.8219,3.8233,3.8271,3.8259,3.8105,3.8082,3.8061,3.8039,3.8276,3.8276,3.8419,3.8421,3.8422]},{"header":{"parameterUnit":"m.s-1","parameterCategory":1,"la1":30.2991,"la2":30.254,"lo1":-89.0895,"lo2":-89.0444,"dy":0.0017,"dx":0.0017,"nx":28,"ny":28,"refTime":"2024-08-16T09:00:00:Z","depth":0,"parameterNumber":3,"parameterNumberName":"V-component_of_WINDS"},"data":[0,0,0,0,0,0,0,0,0,0,0,0,0,0,0,0,0,0,0,0,0,0,0,0,0,0,0,0,0,0,0,0,0,0,0,0,0,0,0,0,0,0,0,0,0,0,0,0,0,0,0,0,0,0,0,0,0,0,1.4361,1.4361,0,1.4397,1.4397,1.4398,1.4353,1.4351,1.435,1.4348,1.4385,1.4387,1.439,0,0,0,0,0,0,0,0,0,0,0,0,0,1.4252,1.4254,1.436,1.4361,1.4361,1.4397,1.4397,1.4398,1.4353,1.4351,1.4349,1.4348,1.4384,1.4387,1.439,0,0,0,0,0,0,0,0,0,0,0,0,0,1.4295,1.4255,1.436,1.4344,1.4342,1.4397,1.4397,1.4398,1.4354,1.4351,1.4349,1.4347,1.4383,1.4387,1.439,1.4463,0,0,1.4402,1.4403,0,0,0,0,0,0,0,0,1.4292,1.4299,1.4346,1.4345,1.4344,1.4368,1.4372,1.442,1.4354,1.4349,1.4348,1.4345,1.4381,1.4385,1.4397,1.4465,1.4466,1.4402,1.4404,1.4406,1.4407,0,0,0,0,0,0,0,1.4289,1.4297,1.4375,1.4346,1.4345,1.4334,1.4337,1.4381,1.4379,1.435,1.4347,1.4352,1.438,1.4394,1.4398,1.4467,1.4402,1.4405,1.4408,1.4409,1.4595,1.4597,0,0,0,0,0,0,1.4288,1.4295,1.4374,1.4376,1.4311,1.4338,1.4342,1.4363,1.4378,1.4378,1.4354,1.4349,1.4388,1.4393,1.4399,1.4484,1.4406,1.4409,1.4412,1.4592,1.4596,1.4598,0,0,0,0,0,0,1.4286,1.4296,1.4372,1.4335,1.4343,1.4342,1.4366,1.4365,1.4378,1.4381,1.438,1.4368,1.4387,1.4393,1.4447,1.4484,1.4411,1.4415,1.4589,1.4593,1.4597,1.4655,0,0,0,0,0,0,1.4283,1.4295,1.4323,1.4335,1.4346,1.442,1.4369,1.4367,1.4385,1.438,1.4394,1.4394,1.4385,1.4442,1.4451,1.4488,1.4417,1.4586,1.4591,1.4596,1.465,1.4661,1.467,0,0,0,0,0,1.428,1.4338,1.4325,1.4334,1.438,1.4423,1.4428,1.4417,1.4388,1.4416,1.4418,1.4394,1.4479,1.4448,1.4458,1.4497,1.4583,1.4589,1.4595,1.4645,1.4659,1.467,0,0,0,0,0,0,1.4329,1.4339,1.4325,1.4389,1.4405,1.4415,1.4449,1.4432,1.4456,1.445,1.4435,1.4439,1.4496,1.4502,1.4466,1.4568,1.4526,1.4535,1.4561,1.4574,1.4584,1.458,1.4421,0,0,0,0,0,1.4348,1.4382,1.4389,1.4445,1.4454,1.445,1.4468,1.4459,1.4475,1.4481,1.4487,1.4504,1.4534,1.4555,1.4583,1.4651,1.4653,1.4683,1.4693,1.4701,1.4708,1.4744,1.4757,1.4618,1.4618,1.4618,0,0,1.4386,1.4396,1.4418,1.4455,1.4466,1.4501,1.4456,1.4496,1.4521,1.4487,1.4538,1.4543,1.4561,1.4622,1.4649,1.4629,1.4747,1.4709,1.4716,1.4718,1.4752,1.4765,1.4776,1.4622,1.4622,1.4621,0,0,1.4474,1.4485,1.4532,1.4545,1.4564,1.4561,1.4573,1.4586,1.4588,1.4639,1.4614,1.4644,1.4697,1.4711,1.4724,1.4818,1.4797,1.4828,1.488,1.4915,1.4926,1.4935,1.4967,1.4979,1.4835,1.4835,1.4835,0,1.4519,1.4571,1.4559,1.46,1.4616,1.4588,1.4636,1.4649,1.4675,1.4687,1.4664,1.473,1.474,1.4804,1.4827,1.4839,1.4851,1.4825,1.4925,1.4935,1.4943,1.4974,1.4986,1.4839,1.4838,1.4838,1.4838,0,1.4625,1.4662,1.4698,1.4724,1.4745,1.4789,1.4784,1.4807,1.4795,1.4795,1.4847,1.4859,1.4888,1.4903,1.4892,1.4965,1.4952,1.4928,1.4885,1.496,1.4988,1.5,1.4844,1.4843,1.4841,1.4841,0,0,1.4743,1.4763,1.4776,1.4788,1.4807,1.4835,1.4878,1.4907,1.4926,1.4946,1.4981,1.5028,1.5005,1.5021,1.5012,1.5043,1.5115,1.5014,1.5014,1.5031,1.5195,1.5211,1.5225,1.5102,1.5104,1.5106,1.5193,0,1.4829,1.4904,1.4894,1.4965,1.4999,1.4973,1.501,1.5026,1.5027,1.5056,1.5057,1.509,1.5058,1.5068,1.5097,1.51,1.5147,1.5094,1.5133,1.5135,1.5127,1.524,1.5258,1.534,1.5204,1.5206,1.5207,0,1.494,1.4964,1.5038,1.5051,1.5065,1.5099,1.5125,1.5153,1.517,1.5169,1.5187,1.5172,1.5215,1.5174,1.5232,1.5196,1.5212,1.5216,1.5219,1.522,1.5174,1.5243,1.5365,1.5377,1.5225,1.5223,1.5222,0,1.5016,1.5067,1.5118,1.5129,1.5147,1.5171,1.5179,1.5194,1.5212,1.5236,1.5247,1.5275,1.529,1.5312,1.5305,1.5276,1.5365,1.5323,1.5364,1.5364,1.5382,1.5381,1.5507,1.5396,1.5396,1.5395,1.5395,0,1.5113,1.5159,1.5153,1.5184,1.5235,1.5225,1.5275,1.528,1.5294,1.5325,1.5305,1.5335,1.5325,1.5355,1.535,1.5398,1.5406,1.5405,1.5403,1.5406,1.5406,1.5415,1.5408,1.5399,1.5398,1.5397,1.5397,0,1.5206,1.5204,1.5258,1.527,1.5275,1.5311,1.5322,1.5351,1.5352,1.5392,1.54,1.5401,1.5435,1.5431,1.5468,1.5465,1.5525,1.5516,1.5519,1.5516,1.5557,1.5552,1.5691,1.5708,1.5588,1.5589,1.559,0,1.5267,1.5301,1.5318,1.5338,1.5348,1.538,1.5399,1.5391,1.5411,1.5433,1.546,1.5492,1.5516,1.5571,1.5575,1.5603,1.5595,1.5641,1.5598,1.56,1.5593,1.5591,1.5593,1.5649,1.565,1.5652,1.5653,0,1.5374,1.5371,1.5399,1.5427,1.545,1.5472,1.5491,1.5509,1.5502,1.5526,1.556,1.558,1.5618,1.565,1.5677,1.5685,1.5668,1.5666,1.5677,1.5679,1.5678,1.5678,1.554,1.5663,1.5662,1.5661,1.566,1.566,1.5452,1.5481,1.5497,1.5529,1.5543,1.5562,1.559,1.5594,1.5623,1.5653,1.5647,1.5685,1.5702,1.5736,1.5748,1.5777,1.576,1.5776,1.578,1.5783,1.5787,1.5676,1.5782,1.5782,1.5782,1.5782,1.5781,0,1.5556,1.5566,1.5595,1.5623,1.5648,1.5631,1.5652,1.5674,1.5708,1.5725,1.575,1.5789,1.582,1.5827,1.5856,1.5878,1.5871,1.5886,1.5883,1.5885,1.5802,1.5789,1.5892,1.5892,1.5891,1.5891,1.5891,1.5891,1.5614,1.5662,1.5662,1.5718,1.5727,1.5764,1.5778,1.5795,1.5808,1.5853,1.5879,1.5883,1.5896,1.5926,1.5953,1.5954,1.5965,1.5983,1.5981,1.5902,1.5891,1.5881,1.5868,1.5986,1.5987,1.6062,1.6063,1.6064]}]]